Weather History for San Jose, Costa Rica

Change the Weather History Date:

Friday, August 8, 2014

  Actual Average Record
Temperature  
Mean Temperature 71 °F -  
Max Temperature 77 °F 80 °F 86 °F (2004)
Min Temperature 65 °F 64 °F 62 °F (2013)
Cooling Degree Days 6    
Growing Degree Days 21 (Base 50)    
Moisture  
Dew Point 63 °F    
Average Humidity 82    
Maximum Humidity 94    
Minimum Humidity 68    
Precipitation  
Precipitation 0.39 in 0.39 in - ()
Sea Level Pressure  
Sea Level Pressure 30.00 in    
Wind  
Wind Speed 5 mph ()    
Max Wind Speed 28 mph    
Max Gust Speed -    
Visibility 7.2 miles    
Events Rain    
Averages and records for this station are not official NWS values.
T = Trace of Precipitation, MM = Missing Value Source: Averaged Metar Reports

Daily Weather History Graph

Daily Weather History Graph

Search for Another Location

Airport:

Trip Planner

Search our weather history database for the weather conditions in past years. The results will help you decide how hot, cold, wet, or windy it might be!

Date:

Astronomy

Aug. 08, 2014 Rise Set
Actual Time 5:27 AM CST 5:57 PM CST
Civil Twilight 5:05 AM CST 6:19 PM CST
Nautical Twilight 4:39 AM CST 6:45 PM CST
Astronomical Twilight 4:13 AM CST 7:10 PM CST
Moon 4:04 PM CST (8/8) 3:05 AM CST (8/8)
Length of Visible Light 13h 14m
Length of Day
12h 30m
Waxing Gibbous, 94% of the Moon is Illuminated
Aug 8
Waxing Gibbous
Aug 10
Full
Aug 17
Last Quarter
Aug 25
New
Sep 2
First Quarter

Hourly Weather History & Observations

Time (CST) Temp. Dew Point Humidity Pressure Visibility Wind Dir Wind Speed Gust Speed Precip Events Conditions
12:00 AM 69 °F 65 °F 81% 29.88 in 12 mi NNW 2.3 mph - -   Mostly Cloudy
12:00 AM 68.0 °F 64.4 °F 88% 30.05 in - NNW 2.3 mph - N/A   Clear
1:00 AM 68.0 °F 62.6 °F 83% 30.02 in - NE 3.5 mph - N/A   Clear
2:00 AM 66.2 °F 62.6 °F 88% 30.00 in - NE 2.3 mph - N/A   Clear
3:00 AM 67 °F 62 °F 78% 29.86 in 12 mi ENE 4.6 mph - -   Mostly Cloudy
3:00 AM 66.2 °F 62.6 °F 88% 29.99 in - ENE 4.6 mph - N/A   Clear
4:00 AM 68.0 °F 60.8 °F 78% 30.00 in - ENE 8.1 mph - N/A   Clear
5:00 AM 69.8 °F 60.8 °F 73% 29.99 in 6.2 mi NE 6.9 mph - N/A Rain Light Rain
6:00 AM 69 °F 61 °F 68% 29.90 in 12 mi Calm Calm - - Rain Light Rain
6:00 AM 68.0 °F 60.8 °F 78% 30.02 in 6.2 mi Calm Calm - N/A Rain Light Rain
7:00 AM 69.8 °F 62.6 °F 78% 30.00 in 6.2 mi NE 6.9 mph - N/A Rain Light Rain
8:00 AM 71.6 °F 62.6 °F 73% 30.05 in 6.2 mi ENE 6.9 mph - N/A   Mostly Cloudy
9:00 AM - 63 °F % 29.93 in 12 mi NNE 27.6 mph - - Rain Light Rain
9:00 AM 71.6 °F 62.6 °F 73% 30.06 in 6.2 mi NE 6.9 mph - N/A Rain Light Rain
10:00 AM 73.4 °F 62.6 °F 69% 30.06 in 6.2 mi ESE 4.6 mph - N/A Rain Light Rain
11:00 AM 73.4 °F 64.4 °F 73% 30.07 in 6.2 mi WSW 5.8 mph - N/A   Mostly Cloudy
12:00 PM 74 °F 66 °F 70% 29.93 in 12 mi WSW 8.1 mph - -   Overcast
12:00 PM 73.4 °F 66.2 °F 78% 30.06 in 6.2 mi WSW 8.1 mph - N/A   Mostly Cloudy
1:00 PM 75.2 °F 64.4 °F 69% 30.03 in 6.2 mi WSW 9.2 mph - N/A   Mostly Cloudy
1:40 PM 68.0 °F 64.4 °F 88% 30.03 in 3.1 mi SW 11.5 mph - N/A Rain Rain
2:00 PM 66.2 °F 64.4 °F 94% 30.02 in 3.1 mi SW 10.4 mph - N/A Rain Light Rain
3:00 PM 67 °F 65 °F 92% 29.93 in 1 mi North 9.2 mph - - Rain Light Rain
3:00 PM 68.0 °F 64.4 °F 88% 30.04 in 0.9 mi North 9.2 mph - N/A Rain Light Rain
4:00 PM 68.0 °F 64.4 °F 88% 30.03 in 6.2 mi NE 5.8 mph - N/A Rain Light Rain
5:00 PM 66.2 °F 64.4 °F 94% 30.03 in 6.2 mi ESE 4.6 mph - N/A Rain Light Rain
6:00 PM 67 °F 64 °F 89% 29.93 in 12 mi East 6.9 mph - - Rain Light Rain
6:00 PM 66.2 °F 64.4 °F 94% 30.04 in 6.2 mi East 6.9 mph - N/A Rain Light Rain
7:00 PM 68.0 °F 64.4 °F 88% 30.03 in - NE 8.1 mph - N/A   Clear
8:00 PM 68.0 °F 62.6 °F 83% 30.04 in - East 8.1 mph - N/A   Clear
9:00 PM 67 °F 63 °F 82% 29.92 in 12 mi NE 5.8 mph - -   Mostly Cloudy
9:00 PM 66.2 °F 62.6 °F 88% 30.04 in - NE 5.8 mph - N/A   Clear
10:00 PM 68.0 °F 62.6 °F 83% 30.05 in - East 3.5 mph - N/A   Clear
11:00 PM 66.2 °F 62.6 °F 88% 30.05 in - North 3.5 mph - N/A   Clear